| time (UTC) | temp F | wind direction | speed MPH | gust MPH | rain 1hr in | rain 24hr in | rain mn in | humidity % | barometer mb |
| 20260505180644 | 80 | 167 | 3.0 | 12.0 | 0.00 | 0.00 | 0.00 | 72 | 1012.7 |
| 20260505180144 | 80 | 157 | 3.0 | 12.0 | 0.00 | 0.00 | 0.00 | 71 | 1012.7 |
| 20260505175644 | 81 | 180 | 3.0 | 14.0 | 0.00 | 0.00 | 0.00 | 71 | 1012.7 |
| 20260505175145 | 81 | 214 | 3.0 | 14.0 | 0.00 | 0.00 | 0.00 | 74 | 1012.6 |
| 20260505174651 | 80 | 158 | 3.0 | 15.0 | 0.00 | 0.00 | 0.00 | 72 | 1012.7 |
| 20260505174646 | 80 | 215 | 3.0 | 14.0 | 0.00 | 0.00 | 0.00 | 73 | 1012.7 |
| 20260505173640 | 80 | 203 | 3.0 | 15.0 | 0.00 | 0.00 | 0.00 | 72 | 1012.5 |
| 20260505173142 | 80 | 218 | 3.0 | 13.0 | 0.00 | 0.00 | 0.00 | 72 | 1012.6 |
| 20260505172640 | 79 | 207 | 3.0 | 13.0 | 0.00 | 0.00 | 0.00 | 74 | 1012.6 |
| 20260505172142 | 79 | 150 | 3.0 | 11.0 | 0.00 | 0.00 | 0.00 | 73 | 1012.6 |
| 20260505171639 | 79 | 118 | 2.0 | 11.0 | 0.00 | 0.00 | 0.00 | 73 | 1012.8 |
| 20260505171140 | 78 | 169 | 3.0 | 15.0 | 0.00 | 0.00 | 0.00 | 74 | 1012.9 |
| 20260505170638 | 78 | 175 | 4.0 | 15.0 | 0.00 | 0.00 | 0.00 | 74 | 1012.9 |
| 20260505170139 | 78 | 186 | 3.0 | 15.0 | 0.00 | 0.00 | 0.00 | 74 | 1013.0 |
| 20260505165911 | 78 | 169 | 2.0 | 15.0 | 0.00 | 0.00 | 0.00 | 74 | 1013.0 |
| 20260505165410 | 78 | 117 | 2.0 | 11.0 | 0.00 | 0.00 | 0.00 | 74 | 1013.1 |
| 20260505164634 | 78 | 136 | 2.0 | 8.0 | 0.00 | 0.00 | 0.00 | 73 | 1013.1 |
| 20260505164136 | 78 | 171 | 2.0 | 8.0 | 0.00 | 0.00 | 0.00 | 74 | 1013.1 |
| 20260505163637 | 78 | 226 | 2.0 | 7.0 | 0.00 | 0.00 | 0.00 | 75 | 1013.1 |
| 20260505163137 | 78 | 246 | 2.0 | 7.0 | 0.00 | 0.00 | 0.00 | 76 | 1013.1 |
| 20260505162634 | 78 | 144 | 2.0 | 9.0 | 0.00 | 0.00 | 0.00 | 73 | 1013.2 |
| 20260505162136 | 78 | 161 | 2.0 | 9.0 | 0.00 | 0.00 | 0.00 | 74 | 1013.2 |
| 20260505161630 | 77 | 135 | 3.0 | 7.0 | 0.00 | 0.00 | 0.00 | 73 | 1013.2 |
| 20260505161131 | 78 | 201 | 3.0 | 9.0 | 0.00 | 0.00 | 0.00 | 72 | 1013.3 |
| 20260505160631 | 78 | 211 | 3.0 | 11.0 | 0.00 | 0.00 | 0.00 | 72 | 1013.2 |
| 20260505160130 | 78 | 163 | 2.0 | 11.0 | 0.00 | 0.00 | 0.00 | 72 | 1013.3 |
| 20260505153129 | 77 | 203 | 2.0 | 9.0 | 0.00 | 0.00 | 0.00 | 74 | 1013.3 |
| 20260505152629 | 77 | 209 | 3.0 | 10.0 | 0.00 | 0.00 | 0.00 | 74 | 1013.2 |
| 20260505152125 | 76 | 212 | 3.0 | 12.0 | 0.00 | 0.00 | 0.00 | 73 | 1013.2 |
| 20260505151624 | 76 | 167 | 3.0 | 12.0 | 0.00 | 0.00 | 0.00 | 73 | 1013.2 |
| 20260505151126 | 77 | 161 | 3.0 | 12.0 | 0.00 | 0.00 | 0.00 | 73 | 1013.1 |
| 20260505150625 | 77 | 193 | 3.0 | 10.0 | 0.00 | 0.00 | 0.00 | 74 | 1013.1 |
| 20260505150123 | 77 | 248 | 3.0 | 10.0 | 0.00 | 0.00 | 0.00 | 74 | 1013.2 |
| 20260505140608 | 74 | 215 | 2.0 | 9.0 | 0.00 | 0.00 | 0.00 | 78 | 1013.1 |
| 20260505140106 | 74 | 214 | 2.0 | 9.0 | 0.00 | 0.00 | 0.00 | 78 | 1013.1 |
| 20260505125042 | 68 | 174 | 2.0 | 6.0 | 0.00 | 0.00 | 0.00 | 85 | 1013.1 |
| 20260505124543 | 67 | 127 | 1.0 | 5.0 | 0.00 | 0.00 | 0.00 | 86 | 1013.1 |
| 20260505124042 | 67 | 164 | 1.0 | 4.0 | 0.00 | 0.00 | 0.00 | 87 | 1013.0 |
| 20260505123814 | 66 | 134 | 1.0 | 4.0 | 0.00 | 0.00 | 0.00 | 87 | 1012.9 |
| 20260505123043 | 66 | 178 | 1.0 | 3.0 | 0.00 | 0.00 | 0.00 | 88 | 1012.9 |
| 20260505122542 | 65 | 148 | 2.0 | 4.0 | 0.00 | 0.00 | 0.00 | 88 | 1012.9 |
| 20260505122040 | 65 | 164 | 2.0 | 4.0 | 0.00 | 0.00 | 0.00 | 89 | 1012.7 |
| 20260505121541 | 64 | 122 | 2.0 | 5.0 | 0.00 | 0.00 | 0.00 | 89 | 1012.6 |
| 20260505121040 | 64 | 119 | 2.0 | 5.0 | 0.00 | 0.00 | 0.00 | 89 | 1012.6 |
| 20260505120540 | 64 | 154 | 2.0 | 4.0 | 0.00 | 0.00 | 0.00 | 89 | 1012.5 |
| 20260505120037 | 63 | 125 | 2.0 | 4.0 | 0.00 | 0.00 | 0.00 | 89 | 1012.5 |
| 20260505115538 | 63 | 155 | 1.0 | 5.0 | 0.00 | 0.00 | 0.00 | 89 | 1012.6 |
| 20260505115029 | 63 | 173 | 1.0 | 5.0 | 0.00 | 0.00 | 0.00 | 89 | 1012.5 |
| 20260505114532 | 63 | 139 | 2.0 | 6.0 | 0.00 | 0.00 | 0.00 | 89 | 1012.5 |
| 20260505114030 | 63 | 137 | 1.0 | 6.0 | 0.00 | 0.00 | 0.00 | 89 | 1012.6 |
| 20260505113532 | 63 | 126 | 1.0 | 4.0 | 0.00 | 0.00 | 0.00 | 89 | 1012.6 |
| 20260505113030 | 63 | 146 | 1.0 | 5.0 | 0.00 | 0.00 | 0.00 | 88 | 1012.9 |
| 20260505112533 | 63 | 150 | 1.0 | 5.0 | 0.00 | 0.00 | 0.00 | 88 | 1012.6 |
| 20260505112025 | 63 | 134 | 1.0 | 4.0 | 0.00 | 0.00 | 0.00 | 88 | 1012.6 |
| 20260505111526 | 63 | 128 | 1.0 | 5.0 | 0.00 | 0.00 | 0.00 | 88 | 1012.6 |
| 20260505111027 | 63 | 134 | 2.0 | 5.0 | 0.00 | 0.00 | 0.00 | 88 | 1012.7 |
| 20260505110532 | 63 | 151 | 2.0 | 5.0 | 0.00 | 0.00 | 0.00 | 88 | 1012.6 |
| 20260505102014 | 62 | 149 | 2.0 | 5.0 | 0.00 | 0.00 | 0.00 | 88 | 1012.6 |
| 20260505101511 | 62 | 158 | 1.0 | 5.0 | 0.00 | 0.00 | 0.00 | 88 | 1012.5 |
| 20260505101008 | 62 | 144 | 1.0 | 5.0 | 0.00 | 0.00 | 0.00 | 88 | 1012.5 |
| 20260505100506 | 62 | 158 | 1.0 | 4.0 | 0.00 | 0.00 | 0.00 | 88 | 1012.6 |
| 20260505100006 | 62 | 134 | 1.0 | 4.0 | 0.00 | 0.00 | 0.00 | 88 | 1012.6 |
| 20260505095500 | 62 | 140 | 1.0 | 3.0 | 0.00 | 0.00 | 0.00 | 87 | 1012.7 |
| 20260505094958 | 62 | 148 | 1.0 | 3.0 | 0.00 | 0.00 | 0.00 | 87 | 1012.6 |
| 20260505094458 | 62 | 165 | 1.0 | 2.0 | 0.00 | 0.00 | 0.00 | 87 | 1012.8 |
| 20260505093955 | 62 | 144 | 1.0 | 2.0 | 0.00 | 0.00 | 0.00 | 87 | 1012.8 |
| 20260505093453 | 62 | 143 | 1.0 | 2.0 | 0.00 | 0.00 | 0.00 | 86 | 1012.9 |
| 20260505092953 | 62 | 148 | 0.0 | 2.0 | 0.00 | 0.00 | 0.00 | 86 | 1013.0 |
| 20260505092453 | 62 | 148 | 0.0 | 2.0 | 0.00 | 0.00 | 0.00 | 86 | 1012.8 |
| 20260505091952 | 62 | 140 | 1.0 | 3.0 | 0.00 | 0.00 | 0.00 | 86 | 1012.8 |
| 20260505091453 | 62 | 136 | 0.0 | 3.0 | 0.00 | 0.00 | 0.00 | 86 | 1012.8 |
| 20260505090952 | 62 | 129 | 0.0 | 2.0 | 0.00 | 0.00 | 0.00 | 85 | 1012.8 |
| 20260505090448 | 62 | 129 | 0.0 | 2.0 | 0.00 | 0.00 | 0.00 | 85 | 1012.8 |
| 20260505085949 | 62 | 134 | 0.0 | 5.0 | 0.00 | 0.00 | 0.00 | 85 | 1012.8 |
| 20260505085447 | 62 | 134 | 1.0 | 5.0 | 0.00 | 0.00 | 0.00 | 85 | 1012.7 |
| 20260505085224 | 62 | 157 | 2.0 | 5.0 | 0.00 | 0.00 | 0.00 | 86 | 1012.6 |
| 20260505084947 | 62 | 155 | 1.0 | 5.0 | 0.00 | 0.00 | 0.00 | 85 | 1012.6 |
| 20260505083948 | 62 | 152 | 2.0 | 5.0 | 0.00 | 0.00 | 0.00 | 86 | 1012.7 |
| 20260505083714 | 62 | 156 | 2.0 | 5.0 | 0.00 | 0.00 | 0.00 | 85 | 1012.6 |
| 20260505082944 | 62 | 154 | 1.0 | 4.0 | 0.00 | 0.00 | 0.00 | 85 | 1012.5 |
| 20260505082446 | 62 | 153 | 1.0 | 4.0 | 0.00 | 0.00 | 0.00 | 85 | 1012.5 |
| 20260505081944 | 62 | 126 | 1.0 | 3.0 | 0.00 | 0.00 | 0.00 | 85 | 1012.6 |
| 20260505081444 | 62 | 123 | 1.0 | 3.0 | 0.00 | 0.00 | 0.00 | 84 | 1012.6 |
| 20260505081215 | 62 | 112 | 1.0 | 3.0 | 0.00 | 0.00 | 0.00 | 84 | 1012.7 |
| 20260505080439 | 62 | 128 | 1.0 | 2.0 | 0.00 | 0.00 | 0.00 | 84 | 1012.9 |
| 20260505075939 | 62 | 134 | 1.0 | 3.0 | 0.00 | 0.00 | 0.00 | 84 | 1013.0 |
| 20260505075435 | 62 | 150 | 1.0 | 3.0 | 0.00 | 0.00 | 0.00 | 83 | 1012.9 |
| 20260505074934 | 62 | 128 | 1.0 | 2.0 | 0.00 | 0.00 | 0.00 | 83 | 1012.9 |
| 20260505074431 | 62 | 115 | 1.0 | 2.0 | 0.00 | 0.00 | 0.00 | 83 | 1013.0 |
| 20260505073933 | 62 | 134 | 1.0 | 3.0 | 0.00 | 0.00 | 0.00 | 83 | 1013.1 |
| 20260505073433 | 62 | 130 | 1.0 | 3.0 | 0.00 | 0.00 | 0.00 | 83 | 1012.9 |
| 20260505072932 | 62 | 124 | 1.0 | 3.0 | 0.00 | 0.00 | 0.00 | 83 | 1012.8 |
| 20260505072427 | 62 | 134 | 1.0 | 3.0 | 0.00 | 0.00 | 0.00 | 82 | 1012.8 |
| 20260505071927 | 62 | 144 | 1.0 | 3.0 | 0.00 | 0.00 | 0.00 | 82 | 1013.0 |
| 20260505071428 | 63 | 132 | 1.0 | 3.0 | 0.00 | 0.00 | 0.00 | 81 | 1013.0 |
| 20260505070929 | 63 | 131 | 0.0 | 3.0 | 0.00 | 0.00 | 0.00 | 81 | 1013.2 |
| 20260505070426 | 63 | 144 | 1.0 | 3.0 | 0.00 | 0.00 | 0.00 | 81 | 1013.3 |
| 20260505065927 | 63 | 156 | 1.0 | 5.0 | 0.00 | 0.00 | 0.00 | 80 | 1013.4 |
| 20260505065423 | 63 | 157 | 1.0 | 5.0 | 0.00 | 0.00 | 0.00 | 81 | 1013.5 |
| 20260505065155 | 63 | 165 | 1.0 | 4.0 | 0.00 | 0.00 | 0.00 | 80 | 1013.4 |
| 20260505064424 | 63 | 166 | 1.0 | 5.0 | 0.00 | 0.00 | 0.00 | 80 | 1013.4 |
| 20260505063923 | 63 | 138 | 1.0 | 5.0 | 0.00 | 0.00 | 0.00 | 80 | 1013.4 |
| 20260505063423 | 63 | 151 | 2.0 | 6.0 | 0.00 | 0.00 | 0.00 | 80 | 1013.5 |
| 20260505062924 | 63 | 150 | 2.0 | 6.0 | 0.00 | 0.00 | 0.00 | 80 | 1013.6 |
| 20260505062654 | 63 | 163 | 1.0 | 4.0 | 0.00 | 0.00 | 0.00 | 80 | 1013.7 |
| 20260505062149 | 63 | 150 | 1.0 | 4.0 | 0.00 | 0.00 | 0.00 | 80 | 1013.6 |
| 20260505061420 | 63 | 153 | 1.0 | 4.0 | 0.00 | 0.00 | 0.00 | 79 | 1013.8 |
| 20260505060921 | 63 | 160 | 1.0 | 4.0 | 0.00 | 0.00 | 0.00 | 79 | 1013.8 |
| 20260505060417 | 63 | 188 | 1.0 | 2.0 | 0.00 | 0.00 | 0.00 | 80 | 1014.0 |
| 20260505060147 | 63 | 188 | 1.0 | 2.0 | 0.00 | 0.00 | 0.00 | 80 | 1014.0 |
| 20260505055415 | 63 | 188 | 1.0 | 3.0 | 0.00 | 0.00 | 0.00 | 79 | 1013.7 |
| 20260505054912 | 63 | 150 | 1.0 | 3.0 | 0.00 | 0.00 | 0.00 | 79 | 1013.9 |
| 20260505054412 | 63 | 128 | 1.0 | 3.0 | 0.00 | 0.00 | 0.00 | 79 | 1014.0 |
| 20260505053910 | 63 | 130 | 1.0 | 4.0 | 0.00 | 0.00 | 0.00 | 79 | 1014.0 |
| 20260505053410 | 63 | 115 | 1.0 | 4.0 | 0.00 | 0.00 | 0.00 | 79 | 1014.1 |
| 20260505052910 | 63 | 121 | 1.0 | 2.0 | 0.00 | 0.00 | 0.00 | 78 | 1014.2 |
| 20260505052410 | 64 | 121 | 1.0 | 2.0 | 0.00 | 0.00 | 0.00 | 77 | 1014.2 |
| 20260505052141 | 64 | 140 | 1.0 | 2.0 | 0.00 | 0.00 | 0.00 | 77 | 1014.2 |
| 20260505051408 | 64 | 129 | 1.0 | 2.0 | 0.00 | 0.00 | 0.00 | 76 | 1014.3 |
| 20260505050908 | 64 | 129 | 1.0 | 3.0 | 0.00 | 0.00 | 0.00 | 76 | 1014.4 |
| 20260505050639 | 65 | 129 | 2.0 | 3.0 | 0.00 | 0.00 | 0.00 | 75 | 1014.4 |
| 20260505041349 | 66 | 154 | 2.0 | 5.0 | 0.00 | 0.00 | 0.00 | 72 | 1014.4 |
| 20260505041120 | 66 | 145 | 2.0 | 4.0 | 0.00 | 0.00 | 0.00 | 72 | 1014.5 |
| 20260505040349 | 66 | 169 | 2.0 | 4.0 | 0.00 | 0.00 | 0.00 | 71 | 1014.5 |
| 20260505040121 | 66 | 163 | 2.0 | 5.0 | 0.00 | 0.00 | 0.00 | 71 | 1014.5 |
| 20260505035348 | 66 | 150 | 2.0 | 5.0 | 0.00 | 0.00 | 0.00 | 71 | 1014.6 |
| 20260505034844 | 66 | 165 | 2.0 | 5.0 | 0.00 | 0.00 | 0.00 | 70 | 1014.7 |
| 20260505034344 | 66 | 174 | 2.0 | 5.0 | 0.00 | 0.00 | 0.00 | 70 | 1014.4 |
| 20260505033844 | 67 | 148 | 3.0 | 6.0 | 0.00 | 0.00 | 0.00 | 70 | 1014.4 |
| 20260505033617 | 67 | 142 | 3.0 | 6.0 | 0.00 | 0.00 | 0.00 | 69 | 1014.5 |
| 20260505032849 | 67 | 153 | 3.0 | 7.0 | 0.00 | 0.00 | 0.00 | 69 | 1014.4 |
| 20260505032844 | 67 | 155 | 2.0 | 7.0 | 0.00 | 0.00 | 0.00 | 69 | 1014.5 |
| 20260505031839 | 67 | 153 | 3.0 | 6.0 | 0.00 | 0.00 | 0.00 | 68 | 1014.3 |
| 20260505031340 | 67 | 146 | 3.0 | 6.0 | 0.00 | 0.00 | 0.00 | 68 | 1014.4 |
| 20260505030838 | 67 | 159 | 3.0 | 7.0 | 0.00 | 0.00 | 0.00 | 67 | 1014.4 |
| 20260505030339 | 67 | 166 | 3.0 | 7.0 | 0.00 | 0.00 | 0.00 | 67 | 1014.3 |
| 20260505025837 | 67 | 165 | 3.0 | 7.0 | 0.00 | 0.00 | 0.00 | 67 | 1014.3 |
| 20260505025609 | 67 | 150 | 3.0 | 7.0 | 0.00 | 0.00 | 0.00 | 66 | 1014.5 |
| 20260505024830 | 68 | 158 | 3.0 | 7.0 | 0.00 | 0.00 | 0.00 | 66 | 1014.5 |
| 20260505024328 | 68 | 179 | 2.0 | 7.0 | 0.00 | 0.00 | 0.00 | 66 | 1014.3 |
| 20260505023829 | 68 | 124 | 3.0 | 9.0 | 0.00 | 0.00 | 0.00 | 65 | 1014.3 |
| 20260505023327 | 68 | 141 | 3.0 | 9.0 | 0.00 | 0.00 | 0.00 | 65 | 1014.2 |
| 20260505022827 | 68 | 169 | 3.0 | 9.0 | 0.00 | 0.00 | 0.00 | 65 | 1014.0 |
| 20260505022600 | 68 | 142 | 3.0 | 9.0 | 0.00 | 0.00 | 0.00 | 64 | 1014.0 |
| 20260505021824 | 68 | 168 | 3.0 | 7.0 | 0.00 | 0.00 | 0.00 | 64 | 1014.1 |
| 20260505021323 | 69 | 175 | 4.0 | 7.0 | 0.00 | 0.00 | 0.00 | 64 | 1014.0 |
| 20260505020822 | 69 | 168 | 4.0 | 8.0 | 0.00 | 0.00 | 0.00 | 64 | 1014.0 |
| 20260505020321 | 69 | 177 | 3.0 | 8.0 | 0.00 | 0.00 | 0.00 | 64 | 1014.1 |
| 20260505015822 | 69 | 154 | 3.0 | 8.0 | 0.00 | 0.00 | 0.00 | 63 | 1014.0 |
| 20260505015323 | 69 | 173 | 3.0 | 8.0 | 0.00 | 0.00 | 0.00 | 63 | 1014.0 |
| 20260505014824 | 69 | 170 | 3.0 | 8.0 | 0.00 | 0.00 | 0.00 | 63 | 1014.0 |
| 20260505014315 | 70 | 171 | 3.0 | 8.0 | 0.00 | 0.00 | 0.00 | 62 | 1014.1 |
| 20260505014047 | 70 | 155 | 3.0 | 8.0 | 0.00 | 0.00 | 0.00 | 62 | 1014.0 |
| 20260505013547 | 70 | 188 | 3.0 | 8.0 | 0.00 | 0.00 | 0.00 | 62 | 1013.8 |
| 20260505012817 | 70 | 219 | 2.0 | 8.0 | 0.00 | 0.00 | 0.00 | 62 | 1014.0 |
| 20260505012311 | 70 | 165 | 2.0 | 7.0 | 0.00 | 0.00 | 0.00 | 62 | 1014.0 |
| 20260505011805 | 70 | 183 | 2.0 | 8.0 | 0.00 | 0.00 | 0.00 | 62 | 1014.1 |
| 20260505011305 | 71 | 164 | 3.0 | 8.0 | 0.00 | 0.00 | 0.00 | 61 | 1014.0 |
| 20260505010806 | 71 | 160 | 3.0 | 8.0 | 0.00 | 0.00 | 0.00 | 61 | 1014.0 |
| 20260505010306 | 71 | 156 | 3.0 | 9.0 | 0.00 | 0.00 | 0.00 | 61 | 1013.9 |
| 20260505005810 | 71 | 155 | 2.0 | 10.0 | 0.00 | 0.00 | 0.00 | 60 | 1013.9 |
| 20260505005806 | 71 | 178 | 2.0 | 9.0 | 0.00 | 0.00 | 0.00 | 61 | 1013.9 |
| 20260505004805 | 71 | 190 | 3.0 | 10.0 | 0.00 | 0.00 | 0.00 | 60 | 1014.0 |
| 20260505004308 | 71 | 147 | 4.0 | 11.0 | 0.00 | 0.00 | 0.00 | 59 | 1014.0 |
| 20260505003806 | 72 | 150 | 3.0 | 11.0 | 0.00 | 0.00 | 0.00 | 59 | 1013.9 |
| 20260505003537 | 72 | 174 | 3.0 | 10.0 | 0.00 | 0.00 | 0.00 | 59 | 1014.1 |
| 20260505002807 | 72 | 161 | 4.0 | 12.0 | 0.00 | 0.00 | 0.00 | 58 | 1014.0 |
| 20260505002532 | 72 | 160 | 3.0 | 12.0 | 0.00 | 0.00 | 0.00 | 58 | 1013.9 |
| 20260505001803 | 73 | 169 | 4.0 | 13.0 | 0.00 | 0.00 | 0.00 | 58 | 1014.0 |
| 20260505001301 | 73 | 140 | 4.0 | 13.0 | 0.00 | 0.00 | 0.00 | 57 | 1014.0 |
| 20260505000801 | 73 | 148 | 2.0 | 8.0 | 0.00 | 0.00 | 0.00 | 57 | 1013.9 |
| 20260505000302 | 73 | 228 | 2.0 | 7.0 | 0.00 | 0.00 | 0.00 | 56 | 1014.0 |
| 20260505000033 | 74 | 165 | 1.0 | 6.0 | 0.00 | 0.00 | 0.00 | 56 | 1014.1 |
| 20260504235304 | 74 | 235 | 2.0 | 9.0 | 0.00 | 0.00 | 0.00 | 56 | 1014.2 |
| 20260504234802 | 74 | 219 | 2.0 | 9.0 | 0.00 | 0.00 | 0.00 | 55 | 1014.3 |
| 20260504234303 | 74 | 167 | 2.0 | 8.0 | 0.00 | 0.00 | 0.00 | 55 | 1014.2 |
| 20260504233754 | 74 | 187 | 2.0 | 8.0 | 0.00 | 0.00 | 0.00 | 54 | 1014.4 |
| 20260504233254 | 74 | 173 | 1.0 | 5.0 | 0.00 | 0.00 | 0.00 | 55 | 1014.4 |
| 20260504232752 | 75 | 153 | 2.0 | 10.0 | 0.00 | 0.00 | 0.00 | 54 | 1014.5 |
| 20260504232251 | 75 | 182 | 2.0 | 10.0 | 0.00 | 0.00 | 0.00 | 53 | 1014.6 |
| 20260504231749 | 75 | 165 | 1.0 | 4.0 | 0.00 | 0.00 | 0.00 | 53 | 1014.7 |
| 20260504231246 | 75 | 217 | 1.0 | 4.0 | 0.00 | 0.00 | 0.00 | 53 | 1014.8 |
| 20260504230745 | 75 | 219 | 2.0 | 8.0 | 0.00 | 0.00 | 0.00 | 53 | 1014.8 |
| 20260504230246 | 75 | 219 | 2.0 | 8.0 | 0.00 | 0.00 | 0.00 | 53 | 1014.8 |
| 20260504225743 | 76 | 193 | 2.0 | 9.0 | 0.00 | 0.00 | 0.00 | 52 | 1014.8 |
| 20260504225243 | 76 | 205 | 3.0 | 11.0 | 0.00 | 0.00 | 0.00 | 54 | 1014.8 |
| 20260504224744 | 76 | 166 | 2.0 | 11.0 | 0.00 | 0.00 | 0.00 | 51 | 1014.9 |
| 20260504224238 | 76 | 150 | 1.0 | 7.0 | 0.00 | 0.00 | 0.00 | 51 | 1014.9 |
| 20260504223740 | 76 | 178 | 2.0 | 6.0 | 0.00 | 0.00 | 0.00 | 51 | 1014.9 |
| 20260504223238 | 76 | 219 | 2.0 | 6.0 | 0.00 | 0.00 | 0.00 | 51 | 1015.0 |
| 20260504222740 | 76 | 273 | 1.0 | 6.0 | 0.00 | 0.00 | 0.00 | 50 | 1014.9 |
| 20260504222239 | 76 | 259 | 2.0 | 6.0 | 0.00 | 0.00 | 0.00 | 52 | 1015.1 |
| 20260504221739 | 77 | 164 | 2.0 | 5.0 | 0.00 | 0.00 | 0.00 | 49 | 1015.1 |
| 20260504221233 | 77 | 204 | 2.0 | 5.0 | 0.00 | 0.00 | 0.00 | 52 | 1015.0 |
| 20260504221006 | 77 | 201 | 2.0 | 5.0 | 0.00 | 0.00 | 0.00 | 50 | 1015.1 |
| 20260504220234 | 78 | 220 | 2.0 | 3.0 | 0.00 | 0.00 | 0.00 | 49 | 1015.2 |
| 20260504215733 | 77 | 238 | 2.0 | 7.0 | 0.00 | 0.00 | 0.00 | 50 | 1015.2 |
| 20260504215234 | 77 | 243 | 2.0 | 7.0 | 0.00 | 0.00 | 0.00 | 52 | 1015.2 |
| 20260504214732 | 78 | 184 | 1.0 | 4.0 | 0.00 | 0.00 | 0.00 | 49 | 1015.4 |
| 20260504214234 | 78 | 205 | 2.0 | 4.0 | 0.00 | 0.00 | 0.00 | 48 | 1015.2 |
| 20260504213727 | 78 | 223 | 3.0 | 6.0 | 0.00 | 0.00 | 0.00 | 48 | 1015.5 |
| 20260504213229 | 77 | 228 | 3.0 | 8.0 | 0.00 | 0.00 | 0.00 | 49 | 1015.5 |
| 20260504212731 | 77 | 233 | 3.0 | 8.0 | 0.00 | 0.00 | 0.00 | 48 | 1015.6 |
| 20260504212228 | 77 | 204 | 3.0 | 10.0 | 0.00 | 0.00 | 0.00 | 47 | 1015.7 |
| 20260504211728 | 77 | 215 | 4.0 | 13.0 | 0.00 | 0.00 | 0.00 | 48 | 1015.7 |
| 20260504211228 | 77 | 202 | 4.0 | 13.0 | 0.00 | 0.00 | 0.00 | 48 | 1015.7 |
| 20260504210722 | 77 | 182 | 2.0 | 9.0 | 0.00 | 0.00 | 0.00 | 47 | 1015.6 |
| 20260504210218 | 77 | 220 | 2.0 | 9.0 | 0.00 | 0.00 | 0.00 | 46 | 1015.6 |
| 20260504205718 | 77 | 182 | 2.0 | 7.0 | 0.00 | 0.00 | 0.00 | 50 | 1015.7 |
| 20260504205216 | 77 | 205 | 3.0 | 10.0 | 0.00 | 0.00 | 0.00 | 50 | 1015.9 |
| 20260504204948 | 77 | 171 | 3.0 | 10.0 | 0.00 | 0.00 | 0.00 | 47 | 1015.8 |
| 20260504204212 | 77 | 117 | 3.0 | 7.0 | 0.00 | 0.00 | 0.00 | 47 | 1015.9 |
| 20260504203712 | 77 | 241 | 2.0 | 7.0 | 0.00 | 0.00 | 0.00 | 47 | 1016.0 |
| 20260504203209 | 77 | 236 | 2.0 | 11.0 | 0.00 | 0.00 | 0.00 | 48 | 1015.9 |
| 20260504202941 | 78 | 198 | 3.0 | 11.0 | 0.00 | 0.00 | 0.00 | 47 | 1016.1 |
| 20260504202210 | 78 | 240 | 2.0 | 7.0 | 0.00 | 0.00 | 0.00 | 52 | 1016.1 |
| 20260504201710 | 77 | 228 | 2.0 | 6.0 | 0.00 | 0.00 | 0.00 | 48 | 1016.1 |
| 20260504201206 | 77 | 219 | 3.0 | 7.0 | 0.00 | 0.00 | 0.00 | 48 | 1016.3 |
| 20260504200938 | 77 | 230 | 2.0 | 8.0 | 0.00 | 0.00 | 0.00 | 46 | 1016.5 |
| 20260504200434 | 77 | 209 | 3.0 | 13.0 | 0.00 | 0.00 | 0.00 | 48 | 1016.6 |
| 20260504195702 | 77 | 244 | 3.0 | 13.0 | 0.00 | 0.00 | 0.00 | 48 | 1016.6 |
| 20260504195200 | 77 | 164 | 2.0 | 10.0 | 0.00 | 0.00 | 0.00 | 48 | 1016.6 |
| 20260504194701 | 77 | 215 | 2.0 | 13.0 | 0.00 | 0.00 | 0.00 | 48 | 1016.6 |
| 20260504194156 | 77 | 173 | 4.0 | 13.0 | 0.00 | 0.00 | 0.00 | 46 | 1016.9 |
| 20260504193654 | 76 | 187 | 4.0 | 10.0 | 0.00 | 0.00 | 0.00 | 49 | 1016.8 |
| 20260504193157 | 77 | 161 | 3.0 | 10.0 | 0.00 | 0.00 | 0.00 | 47 | 1017.0 |
| 20260504192657 | 77 | 215 | 3.0 | 10.0 | 0.00 | 0.00 | 0.00 | 50 | 1017.1 |
| 20260504192154 | 77 | 117 | 3.0 | 10.0 | 0.00 | 0.00 | 0.00 | 47 | 1017.0 |
| 20260504191653 | 77 | 185 | 2.0 | 10.0 | 0.00 | 0.00 | 0.00 | 46 | 1017.1 |
| 20260504191146 | 77 | 247 | 3.0 | 11.0 | 0.00 | 0.00 | 0.00 | 47 | 1017.3 |
| 20260504190647 | 77 | 293 | 3.0 | 11.0 | 0.00 | 0.00 | 0.00 | 47 | 1017.2 |
| 20260504190148 | 77 | 199 | 2.0 | 11.0 | 0.00 | 0.00 | 0.00 | 49 | 1017.3 |
| 20260504185648 | 77 | 186 | 4.0 | 12.0 | 0.00 | 0.00 | 0.00 | 49 | 1017.6 |
| 20260504185148 | 77 | 186 | 4.0 | 12.0 | 0.00 | 0.00 | 0.00 | 45 | 1017.5 |
| 20260504184647 | 77 | 184 | 2.0 | 8.0 | 0.00 | 0.00 | 0.00 | 47 | 1017.6 |
| 20260504184140 | 78 | 221 | 2.0 | 13.0 | 0.00 | 0.00 | 0.00 | 45 | 1017.5 |
| 20260504183910 | 77 | 267 | 2.0 | 13.0 | 0.00 | 0.00 | 0.00 | 45 | 1017.6 |
| 20260504183137 | 77 | 244 | 2.0 | 13.0 | 0.00 | 0.00 | 0.00 | 48 | 1017.6 |
| 20260504182637 | 76 | 192 | 3.0 | 13.0 | 0.00 | 0.00 | 0.00 | 47 | 1017.6 |
| 20260504182134 | 76 | 152 | 4.0 | 10.0 | 0.00 | 0.00 | 0.00 | 46 | 1017.6 |
| 20260504181635 | 77 | 178 | 3.0 | 10.0 | 0.00 | 0.00 | 0.00 | 46 | 1017.7 |
| 20260504181400 | 76 | 238 | 3.0 | 11.0 | 0.00 | 0.00 | 0.00 | 49 | 1017.6 |